Regional Weather Roundup
Issued by NWS Charleston, SC

Current Version | Previous Version | Text Only | Print | Product List | Glossary Off
Versions: 1 2 3 4 5 6 7 8 9 10 11 12 13 14 15 16 17 18 19 20 21 22 23 24 25 26 27 28 29 30 31 32 33 34 35 36 37 38 39 40 41 42 43 44 45 46 47 48 49 50

000
ASUS42 KCHS 042011
RWRCHS

REGIONAL WEATHER ROUNDUP
NATIONAL WEATHER SERVICE CHARLESTON SC
300 PM EST WED MAR 04 2015

NOTE: "FAIR" INDICATES FEW OR NO CLOUDS BELOW 12,000 FEET WITH NO
SIGNIFICANT WEATHER AND/OR OBSTRUCTIONS TO VISIBILITY.

NOT ALL STATIONS ARE QUALITY CONTROLLED BY THE NATIONAL
WEATHER SERVICE. USE DATA WITH CAUTION...ESPECIALLY
DEWPOINT OBSERVATIONS.

SCZ027-030-031-034>040-042>050-042100-
...SOUTHEAST SOUTH CAROLINA...

CITY           SKY/WX    TMP DP  RH WIND       PRES   REMARKS
N CHARLESTON   MOSUNNY   79  63  57 SW18G28   30.00F
WATERFRONT PRK   N/A     66 N/A N/A SW17G25     N/A
MOUNT PLEASANT NOT AVBL
PINOPOLIS      NOT AVBL
MONCKS CORNER  FAIR      81  61  50 SW12      29.98F
SUMMERVILLE    FAIR      82  61  47 SW13G20   29.98F
BEAUFORT MCAS  PTSUNNY   78  65  63 S14G24    30.01F
BEAUFORT ARPT  FAIR      73  66  78 S7G21     30.02F
HILTON HEAD IS SUNNY     73  64  73 S10G22    30.05F
WALTERBORO     PTCLDY    82  61  47 SW14      29.99F
ALLENDALE      FAIR      81  59  47 S12G20    29.98F

...SOUTHERN MIDLANDS AND PEE DEE...

CITY           SKY/WX    TMP DP  RH WIND       PRES   REMARKS
GEORGETOWN     NOT AVBL
KINGSTREE      NOT AVBL
ORANGEBURG     MOSUNNY   81  56  42 SW22G28   29.97F
BARNWELL       FAIR      81  57  44 W18G25    29.98F
AIKEN          CLOUDY    77  59  53 SW17G28   30.02F
MANNING        MOCLDY    81  55  41 SW14G23   29.97F
COLUMBIA       MOSUNNY   80  57  45 SW20G32   29.96F
SUMTER         MOSUNNY   80  58  47 SW17G24   29.94
FLORENCE       PTSUNNY   80  60  50 SW18G25   29.95F
MYRTLE BEACH   MOSUNNY   72  61  68 S16       30.01F
N MYRTLE BEACH MOSUNNY   63  57  81 SW22      29.99F

$$

GAZ063-065-086>088-099>101-113>116-118-119-134>141-150-042100-
...SOUTHEAST GEORGIA...

CITY           SKY/WX    TMP DP  RH WIND       PRES   REMARKS
SAVANNAH ARPT  PTSUNNY   83  58  42 S17G24    30.02F
HUNTER AAF     MOSUNNY   84  62  46 SW14G23   29.99
FORT STEWART   MOSUNNY   83  60  46 SW14      30.00
STATESBORO     NOT AVBL
SYLVANIA       PTCLDY    81  61  50 SW8       30.01F
CLAXTON        MOCLDY    79  63  57 W9        30.02F

...CSRA...CENTRAL AND FAR SOUTHEAST GEORGIA...

CITY           SKY/WX    TMP DP  RH WIND       PRES   REMARKS
THOMSON        NOT AVBL
AUGUSTA-BUSH   MOSUNNY   79  59  50 SW15G24   29.98F
AUGUSTA-DANIEL PTSUNNY   78  59  51 SW10G22   29.99F
SWAINSBORO     NOT AVBL
VIDALIA        PTSUNNY   81  59  47 SW14G23   30.02F
EASTMAN        FAIR      81  61  50 SW13G18   30.03F
HAZLEHURST     NOT AVBL
ALMA           PTSUNNY   81  58  45 SW13      30.02F
WAYCROSS       PTSUNNY   86  64  46 SW10G22   30.03F
JESUP          NOT AVBL
BAXLEY         PTSUNNY   82  61  47 SW7G20    30.02F
BRUNSWICK      NOT AVBL
SAINT SIMONS   MOSUNNY   68  62  81 S15       30.05F

$$

SCZ027-028-034-036>038-045-046-048>050-GAZ119-141-042100-
...LAKE AND SUPPLEMENTAL COASTAL OBSERVATIONS...

STATION/POSITION TIME  TEMP    WIND        PRES    WAVE   SWELL
                       AIR SEA DIR/SP/G            HT/PER HT/PER/DIR
                 (UTC) (F)     (DEG/KT/KT) (MB)    (FT/S) (FT/S/D)
UPR LAKE MARION  NOT AVBL
WINYAH BAY       1845   77     200/ 14     1016.0
LAKE MURRAY      1900   72     230/ 12/ 21 1014.6F
ACE BASIN NERRS  1845   72     170/  3     1017.0
FORT PULASKI     1900   71 52  190/ 10/ 17 1018.0F
SAPELO ISLAND    1900   76     170/ 14     1017.0F

$$

ANZ835-935-AMZ111-154-330-350-352-354-370-450-454-472-042100-
...C-MAN AND BUOY OBSERVATIONS...

STATION/POSITION TIME  TEMP    WIND        PRES    WAVE   SWELL
                       AIR SEA DIR/SP/G            HT/PER HT/PER/DIR
                 (UTC) (F)     (DEG/KT/KT) (MB)    (FT/S) (FT/S/D)
BUOY 41004       1950   69 69  210/ 16/ 19 1017.2F   5/ 6   3/ 8
BUOY 41008       1950   59 54  180/ 12/ 14 1017.7F   3/ 9   2/110/ 9
FOLLY BEACH CMAN NOT AVBL
CAPERS NEARSHORE 1900   53     220/  8/ 10   N/A
FRIPP NEARSHORE  1900   56     200/ 14/ 16 1017.7F


STATION/POSITION TIME  TEMP    WIND        PRES    WAVE   SWELL
                       AIR SEA DIR/SP/G            HT/PER HT/PER/DIR
                 (UTC) (F)     (DEG/KT/KT) (MB)    (FT/S) (FT/S/D)
5E ST. MARYS GA  1921      56                N/A     2/ 9
FRYING PAN BUOY  1950   67 62  220/ 17/ 21 1017.5F   5/ 7   3/130/ 7
BUOY 41025       NOT AVBL
CAPE LOOKOUT NC  NOT AVBL
BUOY 41002       1950   73 73  220/ 16/ 19 1021.1F   5/10   3/130/10
BUOY 41010       1920   74 75  170/ 12/ 16 1020.8F
ST AUGUSTINE FL  1900   64     170/  9/ 10 1019.4F


$$


USA.gov is the U.S. government's official web portal to all federal, state and local government web resources and services.